Index of /20260413/WXO-DD/model_gdps/15km/12/123
Name Last modified Size Description
Parent Directory -
20260413T12Z_MSC_GDPS_AbsoluteVorticity_IsbL-0200_LatLon0.15_PT123H.grib2 2026-04-13 16:47 1.5M
20260413T12Z_MSC_GDPS_AbsoluteVorticity_IsbL-0250_LatLon0.15_PT123H.grib2 2026-04-13 16:47 1.3M
20260413T12Z_MSC_GDPS_AbsoluteVorticity_IsbL-0500_LatLon0.15_PT123H.grib2 2026-04-13 16:47 1.4M
20260413T12Z_MSC_GDPS_AbsoluteVorticity_IsbL-0700_LatLon0.15_PT123H.grib2 2026-04-13 16:47 1.6M
20260413T12Z_MSC_GDPS_AbsoluteVorticity_IsbL-0850_LatLon0.15_PT123H.grib2 2026-04-13 16:47 1.6M
20260413T12Z_MSC_GDPS_AirTemp_AGL-120m_LatLon0.15_PT123H.grib2 2026-04-13 16:47 917K
20260413T12Z_MSC_GDPS_AirTemp_AGL-2m_LatLon0.15_PT123H.grib2 2026-04-13 16:47 1.0M
20260413T12Z_MSC_GDPS_AirTemp_AGL-40m_LatLon0.15_PT123H.grib2 2026-04-13 16:47 818K
20260413T12Z_MSC_GDPS_AirTemp_AGL-80m_LatLon0.15_PT123H.grib2 2026-04-13 16:47 926K
20260413T12Z_MSC_GDPS_AirTemp_IsbL-0001_LatLon0.15_PT123H.grib2 2026-04-13 16:47 704K
20260413T12Z_MSC_GDPS_AirTemp_IsbL-0005_LatLon0.15_PT123H.grib2 2026-04-13 16:47 678K
20260413T12Z_MSC_GDPS_AirTemp_IsbL-0010_LatLon0.15_PT123H.grib2 2026-04-13 16:47 748K
20260413T12Z_MSC_GDPS_AirTemp_IsbL-0020_LatLon0.15_PT123H.grib2 2026-04-13 16:47 693K
20260413T12Z_MSC_GDPS_AirTemp_IsbL-0030_LatLon0.15_PT123H.grib2 2026-04-13 16:47 745K
20260413T12Z_MSC_GDPS_AirTemp_IsbL-0050_LatLon0.15_PT123H.grib2 2026-04-13 16:47 810K
20260413T12Z_MSC_GDPS_AirTemp_IsbL-0100_LatLon0.15_PT123H.grib2 2026-04-13 16:47 954K
20260413T12Z_MSC_GDPS_AirTemp_IsbL-0150_LatLon0.15_PT123H.grib2 2026-04-13 16:47 967K
20260413T12Z_MSC_GDPS_AirTemp_IsbL-0175_LatLon0.15_PT123H.grib2 2026-04-13 16:47 961K
20260413T12Z_MSC_GDPS_AirTemp_IsbL-0200_LatLon0.15_PT123H.grib2 2026-04-13 16:47 970K
20260413T12Z_MSC_GDPS_AirTemp_IsbL-0225_LatLon0.15_PT123H.grib2 2026-04-13 16:47 1.0M
20260413T12Z_MSC_GDPS_AirTemp_IsbL-0250_LatLon0.15_PT123H.grib2 2026-04-13 16:47 1.0M
20260413T12Z_MSC_GDPS_AirTemp_IsbL-0275_LatLon0.15_PT123H.grib2 2026-04-13 16:47 1.0M
20260413T12Z_MSC_GDPS_AirTemp_IsbL-0300_LatLon0.15_PT123H.grib2 2026-04-13 16:47 1.0M
20260413T12Z_MSC_GDPS_AirTemp_IsbL-0350_LatLon0.15_PT123H.grib2 2026-04-13 16:47 928K
20260413T12Z_MSC_GDPS_AirTemp_IsbL-0400_LatLon0.15_PT123H.grib2 2026-04-13 16:47 938K
20260413T12Z_MSC_GDPS_AirTemp_IsbL-0450_LatLon0.15_PT123H.grib2 2026-04-13 16:47 958K
20260413T12Z_MSC_GDPS_AirTemp_IsbL-0500_LatLon0.15_PT123H.grib2 2026-04-13 16:47 1.0M
20260413T12Z_MSC_GDPS_AirTemp_IsbL-0550_LatLon0.15_PT123H.grib2 2026-04-13 16:47 1.0M
20260413T12Z_MSC_GDPS_AirTemp_IsbL-0600_LatLon0.15_PT123H.grib2 2026-04-13 16:47 895K
20260413T12Z_MSC_GDPS_AirTemp_IsbL-0650_LatLon0.15_PT123H.grib2 2026-04-13 16:47 923K
20260413T12Z_MSC_GDPS_AirTemp_IsbL-0700_LatLon0.15_PT123H.grib2 2026-04-13 16:47 960K
20260413T12Z_MSC_GDPS_AirTemp_IsbL-0750_LatLon0.15_PT123H.grib2 2026-04-13 16:47 1.0M
20260413T12Z_MSC_GDPS_AirTemp_IsbL-0800_LatLon0.15_PT123H.grib2 2026-04-13 16:47 1.1M
20260413T12Z_MSC_GDPS_AirTemp_IsbL-0850_LatLon0.15_PT123H.grib2 2026-04-13 16:47 1.1M
20260413T12Z_MSC_GDPS_AirTemp_IsbL-0875_LatLon0.15_PT123H.grib2 2026-04-13 16:47 1.2M
20260413T12Z_MSC_GDPS_AirTemp_IsbL-0900_LatLon0.15_PT123H.grib2 2026-04-13 16:47 1.2M
20260413T12Z_MSC_GDPS_AirTemp_IsbL-0925_LatLon0.15_PT123H.grib2 2026-04-13 16:47 1.1M
20260413T12Z_MSC_GDPS_AirTemp_IsbL-0950_LatLon0.15_PT123H.grib2 2026-04-13 16:47 1.1M
20260413T12Z_MSC_GDPS_AirTemp_IsbL-0970_LatLon0.15_PT123H.grib2 2026-04-13 16:47 1.2M
20260413T12Z_MSC_GDPS_AirTemp_IsbL-0985_LatLon0.15_PT123H.grib2 2026-04-13 16:47 1.1M
20260413T12Z_MSC_GDPS_AirTemp_IsbL-1000_LatLon0.15_PT123H.grib2 2026-04-13 16:47 1.1M
20260413T12Z_MSC_GDPS_AirTemp_IsbL-1015_LatLon0.15_PT123H.grib2 2026-04-13 16:47 1.1M
20260413T12Z_MSC_GDPS_Albedo_Sfc_LatLon0.15_PT123H.grib2 2026-04-13 16:47 246K
20260413T12Z_MSC_GDPS_CAPE_Sfc_LatLon0.15_PT123H.grib2 2026-04-13 16:47 3.7M
20260413T12Z_MSC_GDPS_CIN_Sfc_LatLon0.15_PT123H.grib2 2026-04-13 16:47 2.9M
20260413T12Z_MSC_GDPS_CloudWater_EAtm_LatLon0.15_PT123H.grib2 2026-04-13 16:47 535K
20260413T12Z_MSC_GDPS_ConvectivePrecip-Accum_Sfc_LatLon0.15_PT123H.grib2 2026-04-13 16:47 3.2M
20260413T12Z_MSC_GDPS_DewPointDepression_AGL-2m_LatLon0.15_PT123H.grib2 2026-04-13 16:47 759K
20260413T12Z_MSC_GDPS_DewPointDepression_IsbL-0010_LatLon0.15_PT123H.grib2 2026-04-13 16:47 4.2K
20260413T12Z_MSC_GDPS_DewPointDepression_IsbL-0020_LatLon0.15_PT123H.grib2 2026-04-13 16:47 55K
20260413T12Z_MSC_GDPS_DewPointDepression_IsbL-0030_LatLon0.15_PT123H.grib2 2026-04-13 16:47 70K
20260413T12Z_MSC_GDPS_DewPointDepression_IsbL-0050_LatLon0.15_PT123H.grib2 2026-04-13 16:47 353K
20260413T12Z_MSC_GDPS_DewPointDepression_IsbL-0100_LatLon0.15_PT123H.grib2 2026-04-13 16:47 372K
20260413T12Z_MSC_GDPS_DewPointDepression_IsbL-0150_LatLon0.15_PT123H.grib2 2026-04-13 16:47 461K
20260413T12Z_MSC_GDPS_DewPointDepression_IsbL-0175_LatLon0.15_PT123H.grib2 2026-04-13 16:47 541K
20260413T12Z_MSC_GDPS_DewPointDepression_IsbL-0200_LatLon0.15_PT123H.grib2 2026-04-13 16:47 628K
20260413T12Z_MSC_GDPS_DewPointDepression_IsbL-0225_LatLon0.15_PT123H.grib2 2026-04-13 16:47 762K
20260413T12Z_MSC_GDPS_DewPointDepression_IsbL-0250_LatLon0.15_PT123H.grib2 2026-04-13 16:47 882K
20260413T12Z_MSC_GDPS_DewPointDepression_IsbL-0275_LatLon0.15_PT123H.grib2 2026-04-13 16:47 897K
20260413T12Z_MSC_GDPS_DewPointDepression_IsbL-0300_LatLon0.15_PT123H.grib2 2026-04-13 16:47 928K
20260413T12Z_MSC_GDPS_DewPointDepression_IsbL-0350_LatLon0.15_PT123H.grib2 2026-04-13 16:47 952K
20260413T12Z_MSC_GDPS_DewPointDepression_IsbL-0400_LatLon0.15_PT123H.grib2 2026-04-13 16:47 1.0M
20260413T12Z_MSC_GDPS_DewPointDepression_IsbL-0450_LatLon0.15_PT123H.grib2 2026-04-13 16:47 1.0M
20260413T12Z_MSC_GDPS_DewPointDepression_IsbL-0500_LatLon0.15_PT123H.grib2 2026-04-13 16:47 1.0M
20260413T12Z_MSC_GDPS_DewPointDepression_IsbL-0550_LatLon0.15_PT123H.grib2 2026-04-13 16:47 1.0M
20260413T12Z_MSC_GDPS_DewPointDepression_IsbL-0600_LatLon0.15_PT123H.grib2 2026-04-13 16:47 1.1M
20260413T12Z_MSC_GDPS_DewPointDepression_IsbL-0650_LatLon0.15_PT123H.grib2 2026-04-13 16:47 1.1M
20260413T12Z_MSC_GDPS_DewPointDepression_IsbL-0700_LatLon0.15_PT123H.grib2 2026-04-13 16:47 1.1M
20260413T12Z_MSC_GDPS_DewPointDepression_IsbL-0750_LatLon0.15_PT123H.grib2 2026-04-13 16:47 1.1M
20260413T12Z_MSC_GDPS_DewPointDepression_IsbL-0800_LatLon0.15_PT123H.grib2 2026-04-13 16:47 1.2M
20260413T12Z_MSC_GDPS_DewPointDepression_IsbL-0850_LatLon0.15_PT123H.grib2 2026-04-13 16:47 1.2M
20260413T12Z_MSC_GDPS_DewPointDepression_IsbL-0875_LatLon0.15_PT123H.grib2 2026-04-13 16:47 1.1M
20260413T12Z_MSC_GDPS_DewPointDepression_IsbL-0900_LatLon0.15_PT123H.grib2 2026-04-13 16:47 1.1M
20260413T12Z_MSC_GDPS_DewPointDepression_IsbL-0925_LatLon0.15_PT123H.grib2 2026-04-13 16:47 1.0M
20260413T12Z_MSC_GDPS_DewPointDepression_IsbL-0950_LatLon0.15_PT123H.grib2 2026-04-13 16:47 1.0M
20260413T12Z_MSC_GDPS_DewPointDepression_IsbL-0970_LatLon0.15_PT123H.grib2 2026-04-13 16:47 1.0M
20260413T12Z_MSC_GDPS_DewPointDepression_IsbL-0985_LatLon0.15_PT123H.grib2 2026-04-13 16:47 1.0M
20260413T12Z_MSC_GDPS_DewPointDepression_IsbL-1000_LatLon0.15_PT123H.grib2 2026-04-13 16:47 1.0M
20260413T12Z_MSC_GDPS_DewPointDepression_IsbL-1015_LatLon0.15_PT123H.grib2 2026-04-13 16:47 916K
20260413T12Z_MSC_GDPS_DewPoint_AGL-2m_LatLon0.15_PT123H.grib2 2026-04-13 16:47 618K
20260413T12Z_MSC_GDPS_DownwardLongwaveRadiationFlux-Accum_Sfc_LatLon0.15_PT123H.grib2 2026-04-13 16:47 808K
20260413T12Z_MSC_GDPS_DownwardShortwaveRadiationFlux-Accum_NTAtm_LatLon0.15_PT123H.grib2 2026-04-13 16:47 293K
20260413T12Z_MSC_GDPS_DownwardShortwaveRadiationFlux-Accum_Sfc_LatLon0.15_PT123H.grib2 2026-04-13 16:47 1.0M
20260413T12Z_MSC_GDPS_FreezingRain-Accum1h_Sfc_LatLon0.15_PT123H.grib2 2026-04-13 16:47 34K
20260413T12Z_MSC_GDPS_FreezingRain-Accum3h_Sfc_LatLon0.15_PT123H.grib2 2026-04-13 16:47 39K
20260413T12Z_MSC_GDPS_FreezingRain-Accum_Sfc_LatLon0.15_PT123H.grib2 2026-04-13 16:47 265K
20260413T12Z_MSC_GDPS_GeopotentialHeight_IsbL-0001_LatLon0.15_PT123H.grib2 2026-04-13 16:47 531K
20260413T12Z_MSC_GDPS_GeopotentialHeight_IsbL-0005_LatLon0.15_PT123H.grib2 2026-04-13 16:47 506K
20260413T12Z_MSC_GDPS_GeopotentialHeight_IsbL-0010_LatLon0.15_PT123H.grib2 2026-04-13 16:47 435K
20260413T12Z_MSC_GDPS_GeopotentialHeight_IsbL-0020_LatLon0.15_PT123H.grib2 2026-04-13 16:47 575K
20260413T12Z_MSC_GDPS_GeopotentialHeight_IsbL-0030_LatLon0.15_PT123H.grib2 2026-04-13 16:47 580K
20260413T12Z_MSC_GDPS_GeopotentialHeight_IsbL-0050_LatLon0.15_PT123H.grib2 2026-04-13 16:47 515K
20260413T12Z_MSC_GDPS_GeopotentialHeight_IsbL-0100_LatLon0.15_PT123H.grib2 2026-04-13 16:47 621K
20260413T12Z_MSC_GDPS_GeopotentialHeight_IsbL-0150_LatLon0.15_PT123H.grib2 2026-04-13 16:47 637K
20260413T12Z_MSC_GDPS_GeopotentialHeight_IsbL-0175_LatLon0.15_PT123H.grib2 2026-04-13 16:47 641K
20260413T12Z_MSC_GDPS_GeopotentialHeight_IsbL-0200_LatLon0.15_PT123H.grib2 2026-04-13 16:47 644K
20260413T12Z_MSC_GDPS_GeopotentialHeight_IsbL-0225_LatLon0.15_PT123H.grib2 2026-04-13 16:47 638K
20260413T12Z_MSC_GDPS_GeopotentialHeight_IsbL-0250_LatLon0.15_PT123H.grib2 2026-04-13 16:47 644K
20260413T12Z_MSC_GDPS_GeopotentialHeight_IsbL-0275_LatLon0.15_PT123H.grib2 2026-04-13 16:47 645K
20260413T12Z_MSC_GDPS_GeopotentialHeight_IsbL-0300_LatLon0.15_PT123H.grib2 2026-04-13 16:47 635K
20260413T12Z_MSC_GDPS_GeopotentialHeight_IsbL-0350_LatLon0.15_PT123H.grib2 2026-04-13 16:47 632K
20260413T12Z_MSC_GDPS_GeopotentialHeight_IsbL-0400_LatLon0.15_PT123H.grib2 2026-04-13 16:47 620K
20260413T12Z_MSC_GDPS_GeopotentialHeight_IsbL-0450_LatLon0.15_PT123H.grib2 2026-04-13 16:47 541K
20260413T12Z_MSC_GDPS_GeopotentialHeight_IsbL-0500_LatLon0.15_PT123H.grib2 2026-04-13 16:47 528K
20260413T12Z_MSC_GDPS_GeopotentialHeight_IsbL-0550_LatLon0.15_PT123H.grib2 2026-04-13 16:47 693K
20260413T12Z_MSC_GDPS_GeopotentialHeight_IsbL-0600_LatLon0.15_PT123H.grib2 2026-04-13 16:47 685K
20260413T12Z_MSC_GDPS_GeopotentialHeight_IsbL-0650_LatLon0.15_PT123H.grib2 2026-04-13 16:47 686K
20260413T12Z_MSC_GDPS_GeopotentialHeight_IsbL-0700_LatLon0.15_PT123H.grib2 2026-04-13 16:47 689K
20260413T12Z_MSC_GDPS_GeopotentialHeight_IsbL-0750_LatLon0.15_PT123H.grib2 2026-04-13 16:47 693K
20260413T12Z_MSC_GDPS_GeopotentialHeight_IsbL-0800_LatLon0.15_PT123H.grib2 2026-04-13 16:47 702K
20260413T12Z_MSC_GDPS_GeopotentialHeight_IsbL-0850_LatLon0.15_PT123H.grib2 2026-04-13 16:47 645K
20260413T12Z_MSC_GDPS_GeopotentialHeight_IsbL-0875_LatLon0.15_PT123H.grib2 2026-04-13 16:47 716K
20260413T12Z_MSC_GDPS_GeopotentialHeight_IsbL-0900_LatLon0.15_PT123H.grib2 2026-04-13 16:47 724K
20260413T12Z_MSC_GDPS_GeopotentialHeight_IsbL-0925_LatLon0.15_PT123H.grib2 2026-04-13 16:47 732K
20260413T12Z_MSC_GDPS_GeopotentialHeight_IsbL-0950_LatLon0.15_PT123H.grib2 2026-04-13 16:47 739K
20260413T12Z_MSC_GDPS_GeopotentialHeight_IsbL-0970_LatLon0.15_PT123H.grib2 2026-04-13 16:47 751K
20260413T12Z_MSC_GDPS_GeopotentialHeight_IsbL-0985_LatLon0.15_PT123H.grib2 2026-04-13 16:47 768K
20260413T12Z_MSC_GDPS_GeopotentialHeight_IsbL-1000_LatLon0.15_PT123H.grib2 2026-04-13 16:47 789K
20260413T12Z_MSC_GDPS_GeopotentialHeight_IsbL-1015_LatLon0.15_PT123H.grib2 2026-04-13 16:47 812K
20260413T12Z_MSC_GDPS_Humidex_Sfc_LatLon0.15_PT123H.grib2 2026-04-13 16:47 5.3M
20260413T12Z_MSC_GDPS_IcePellets-Accum1h_Sfc_LatLon0.15_PT123H.grib2 2026-04-13 16:47 19K
20260413T12Z_MSC_GDPS_IcePellets-Accum3h_Sfc_LatLon0.15_PT123H.grib2 2026-04-13 16:47 18K
20260413T12Z_MSC_GDPS_IcePellets-Accum_Sfc_LatLon0.15_PT123H.grib2 2026-04-13 16:47 136K
20260413T12Z_MSC_GDPS_KIndex_Sfc_LatLon0.15_PT123H.grib2 2026-04-13 16:47 6.5M
20260413T12Z_MSC_GDPS_LatentHeatNetFlux_Sfc_LatLon0.15_PT123H.grib2 2026-04-13 16:47 521K
20260413T12Z_MSC_GDPS_LiftedIndex-MU-VT_IsbL-0500_LatLon0.15_PT123H.grib2 2026-04-13 16:47 5.4M
20260413T12Z_MSC_GDPS_NetLongwaveRadiationFlux-Accum_Sfc_LatLon0.15_PT123H.grib2 2026-04-13 16:47 1.0M
20260413T12Z_MSC_GDPS_NetShortwaveRadiationFlux-Accum_Sfc_LatLon0.15_PT123H.grib2 2026-04-13 16:47 1.0M
20260413T12Z_MSC_GDPS_O3MixingRatio_LatLon0.15_PT123H.grib2 2026-04-13 17:07 1.9M
20260413T12Z_MSC_GDPS_O3_EAtm_LatLon0.15_PT123H.grib2 2026-04-13 17:07 2.1M
20260413T12Z_MSC_GDPS_PlanetaryBoundaryLayerHeight_Sfc_LatLon0.15_PT123H.grib2 2026-04-13 16:47 2.5M
20260413T12Z_MSC_GDPS_Precip-Accum1h_Sfc_LatLon0.15_PT123H.grib2 2026-04-13 16:47 3.2M
20260413T12Z_MSC_GDPS_Precip-Accum3h_Sfc_LatLon0.15_PT123H.grib2 2026-04-13 16:47 3.5M
20260413T12Z_MSC_GDPS_Precip-Accum_Sfc_LatLon0.15_PT123H.grib2 2026-04-13 16:47 5.1M
20260413T12Z_MSC_GDPS_PrecipRate_Sfc_LatLon0.15_PT123H.grib2 2026-04-13 16:47 3.0M
20260413T12Z_MSC_GDPS_PrecipType-Instant_Sfc_LatLon0.15_PT123H.grib2 2026-04-13 16:47 1.5M
20260413T12Z_MSC_GDPS_Pressure_MSL_LatLon0.15_PT123H.grib2 2026-04-13 16:47 730K
20260413T12Z_MSC_GDPS_Pressure_PVU-1.5_LatLon0.15_PT123H.grib2 2026-04-13 16:47 5.8M
20260413T12Z_MSC_GDPS_Pressure_PVU-1_LatLon0.15_PT123H.grib2 2026-04-13 16:47 6.0M
20260413T12Z_MSC_GDPS_Pressure_PVU-2_LatLon0.15_PT123H.grib2 2026-04-13 16:47 5.6M
20260413T12Z_MSC_GDPS_Pressure_Sfc_LatLon0.15_PT123H.grib2 2026-04-13 16:47 1.1M
20260413T12Z_MSC_GDPS_RadiativeTemp_Sfc_LatLon0.15_PT123H.grib2 2026-04-13 16:47 677K
20260413T12Z_MSC_GDPS_Rain-Accum1h_Sfc_LatLon0.15_PT123H.grib2 2026-04-13 16:47 1.6M
20260413T12Z_MSC_GDPS_Rain-Accum3h_Sfc_LatLon0.15_PT123H.grib2 2026-04-13 16:47 1.8M
20260413T12Z_MSC_GDPS_Rain-Accum_Sfc_LatLon0.15_PT123H.grib2 2026-04-13 16:47 3.8M
20260413T12Z_MSC_GDPS_RelativeHumidity_AGL-2m_LatLon0.15_PT123H.grib2 2026-04-13 16:47 1.0M
20260413T12Z_MSC_GDPS_RelativeHumidity_IsbL-0010_LatLon0.15_PT123H.grib2 2026-04-13 16:47 226K
20260413T12Z_MSC_GDPS_RelativeHumidity_IsbL-0020_LatLon0.15_PT123H.grib2 2026-04-13 16:47 363K
20260413T12Z_MSC_GDPS_RelativeHumidity_IsbL-0030_LatLon0.15_PT123H.grib2 2026-04-13 16:47 375K
20260413T12Z_MSC_GDPS_RelativeHumidity_IsbL-0050_LatLon0.15_PT123H.grib2 2026-04-13 16:47 404K
20260413T12Z_MSC_GDPS_RelativeHumidity_IsbL-0100_LatLon0.15_PT123H.grib2 2026-04-13 16:47 480K
20260413T12Z_MSC_GDPS_RelativeHumidity_IsbL-0150_LatLon0.15_PT123H.grib2 2026-04-13 16:47 649K
20260413T12Z_MSC_GDPS_RelativeHumidity_IsbL-0175_LatLon0.15_PT123H.grib2 2026-04-13 16:47 789K
20260413T12Z_MSC_GDPS_RelativeHumidity_IsbL-0200_LatLon0.15_PT123H.grib2 2026-04-13 16:47 698K
20260413T12Z_MSC_GDPS_RelativeHumidity_IsbL-0225_LatLon0.15_PT123H.grib2 2026-04-13 16:47 788K
20260413T12Z_MSC_GDPS_RelativeHumidity_IsbL-0250_LatLon0.15_PT123H.grib2 2026-04-13 16:47 882K
20260413T12Z_MSC_GDPS_RelativeHumidity_IsbL-0275_LatLon0.15_PT123H.grib2 2026-04-13 16:47 906K
20260413T12Z_MSC_GDPS_RelativeHumidity_IsbL-0300_LatLon0.15_PT123H.grib2 2026-04-13 16:47 945K
20260413T12Z_MSC_GDPS_RelativeHumidity_IsbL-0350_LatLon0.15_PT123H.grib2 2026-04-13 16:47 962K
20260413T12Z_MSC_GDPS_RelativeHumidity_IsbL-0400_LatLon0.15_PT123H.grib2 2026-04-13 16:47 1.0M
20260413T12Z_MSC_GDPS_RelativeHumidity_IsbL-0450_LatLon0.15_PT123H.grib2 2026-04-13 16:47 1.0M
20260413T12Z_MSC_GDPS_RelativeHumidity_IsbL-0500_LatLon0.15_PT123H.grib2 2026-04-13 16:47 1.0M
20260413T12Z_MSC_GDPS_RelativeHumidity_IsbL-0550_LatLon0.15_PT123H.grib2 2026-04-13 16:47 1.0M
20260413T12Z_MSC_GDPS_RelativeHumidity_IsbL-0600_LatLon0.15_PT123H.grib2 2026-04-13 16:47 1.1M
20260413T12Z_MSC_GDPS_RelativeHumidity_IsbL-0650_LatLon0.15_PT123H.grib2 2026-04-13 16:47 1.1M
20260413T12Z_MSC_GDPS_RelativeHumidity_IsbL-0700_LatLon0.15_PT123H.grib2 2026-04-13 16:47 1.2M
20260413T12Z_MSC_GDPS_RelativeHumidity_IsbL-0750_LatLon0.15_PT123H.grib2 2026-04-13 16:47 1.2M
20260413T12Z_MSC_GDPS_RelativeHumidity_IsbL-0800_LatLon0.15_PT123H.grib2 2026-04-13 16:47 1.3M
20260413T12Z_MSC_GDPS_RelativeHumidity_IsbL-0850_LatLon0.15_PT123H.grib2 2026-04-13 16:47 1.3M
20260413T12Z_MSC_GDPS_RelativeHumidity_IsbL-0875_LatLon0.15_PT123H.grib2 2026-04-13 16:47 1.3M
20260413T12Z_MSC_GDPS_RelativeHumidity_IsbL-0900_LatLon0.15_PT123H.grib2 2026-04-13 16:47 1.2M
20260413T12Z_MSC_GDPS_RelativeHumidity_IsbL-0925_LatLon0.15_PT123H.grib2 2026-04-13 16:47 1.2M
20260413T12Z_MSC_GDPS_RelativeHumidity_IsbL-0950_LatLon0.15_PT123H.grib2 2026-04-13 16:47 1.2M
20260413T12Z_MSC_GDPS_RelativeHumidity_IsbL-0970_LatLon0.15_PT123H.grib2 2026-04-13 16:47 1.2M
20260413T12Z_MSC_GDPS_RelativeHumidity_IsbL-0985_LatLon0.15_PT123H.grib2 2026-04-13 16:47 1.2M
20260413T12Z_MSC_GDPS_RelativeHumidity_IsbL-1000_LatLon0.15_PT123H.grib2 2026-04-13 16:47 1.1M
20260413T12Z_MSC_GDPS_RelativeHumidity_IsbL-1015_LatLon0.15_PT123H.grib2 2026-04-13 16:47 1.0M
20260413T12Z_MSC_GDPS_RelativeVorticity_IsbL-0200_LatLon0.15_PT123H.grib2 2026-04-13 16:47 1.5M
20260413T12Z_MSC_GDPS_RelativeVorticity_IsbL-0250_LatLon0.15_PT123H.grib2 2026-04-13 16:47 1.3M
20260413T12Z_MSC_GDPS_RelativeVorticity_IsbL-0500_LatLon0.15_PT123H.grib2 2026-04-13 16:47 1.4M
20260413T12Z_MSC_GDPS_RelativeVorticity_IsbL-0700_LatLon0.15_PT123H.grib2 2026-04-13 16:47 1.6M
20260413T12Z_MSC_GDPS_RelativeVorticity_IsbL-0850_LatLon0.15_PT123H.grib2 2026-04-13 16:47 1.6M
20260413T12Z_MSC_GDPS_Runoff-Accum_Sfc_LatLon0.15_PT123H.grib2 2026-04-13 16:47 117K
20260413T12Z_MSC_GDPS_SensibleHeatNetFlux_Sfc_LatLon0.15_PT123H.grib2 2026-04-13 16:47 469K
20260413T12Z_MSC_GDPS_ShowalterIndex_IsbL-0500_LatLon0.15_PT123H.grib2 2026-04-13 16:47 6.2M
20260413T12Z_MSC_GDPS_Snow-Accum1h_Sfc_LatLon0.15_PT123H.grib2 2026-04-13 16:47 1.0M
20260413T12Z_MSC_GDPS_Snow-Accum3h_Sfc_LatLon0.15_PT123H.grib2 2026-04-13 16:47 1.1M
20260413T12Z_MSC_GDPS_Snow-Accum_Sfc_LatLon0.15_PT123H.grib2 2026-04-13 16:47 1.9M
20260413T12Z_MSC_GDPS_SnowDensity_Sfc_LatLon0.15_PT123H.grib2 2026-04-13 16:47 268K
20260413T12Z_MSC_GDPS_SnowDepth_Sfc_LatLon0.15_PT123H.grib2 2026-04-13 16:47 1.8M
20260413T12Z_MSC_GDPS_SoilTemp_DBS-0to10cm_LatLon0.15_PT123H.grib2 2026-04-13 16:47 510K
20260413T12Z_MSC_GDPS_SoilTemp_Sfc_LatLon0.15_PT123H.grib2 2026-04-13 16:47 578K
20260413T12Z_MSC_GDPS_SoilVolumetricIceContent_Sfc_LatLon0.15_PT123H.grib2 2026-04-13 16:47 224K
20260413T12Z_MSC_GDPS_SoilVolumetricWaterContent_DBS-0to10cm_LatLon0.15_PT123H.grib2 2026-04-13 16:47 552K
20260413T12Z_MSC_GDPS_SoilVolumetricWaterContent_DBS-0to1cm_LatLon0.15_PT123H.grib2 2026-04-13 16:47 649K
20260413T12Z_MSC_GDPS_SpecificHumidity_AGL-120m_LatLon0.15_PT123H.grib2 2026-04-13 16:47 1.1M
20260413T12Z_MSC_GDPS_SpecificHumidity_AGL-2m_LatLon0.15_PT123H.grib2 2026-04-13 16:47 1.2M
20260413T12Z_MSC_GDPS_SpecificHumidity_AGL-40m_LatLon0.15_PT123H.grib2 2026-04-13 16:47 1.1M
20260413T12Z_MSC_GDPS_SpecificHumidity_AGL-80m_LatLon0.15_PT123H.grib2 2026-04-13 16:47 1.1M
20260413T12Z_MSC_GDPS_SpecificHumidity_IsbL-0001_LatLon0.15_PT123H.grib2 2026-04-13 16:47 1.1M
20260413T12Z_MSC_GDPS_SpecificHumidity_IsbL-0005_LatLon0.15_PT123H.grib2 2026-04-13 16:47 1.1M
20260413T12Z_MSC_GDPS_SpecificHumidity_IsbL-0010_LatLon0.15_PT123H.grib2 2026-04-13 16:47 1.2M
20260413T12Z_MSC_GDPS_SpecificHumidity_IsbL-0020_LatLon0.15_PT123H.grib2 2026-04-13 16:47 1.3M
20260413T12Z_MSC_GDPS_SpecificHumidity_IsbL-0030_LatLon0.15_PT123H.grib2 2026-04-13 16:47 1.6M
20260413T12Z_MSC_GDPS_SpecificHumidity_IsbL-0050_LatLon0.15_PT123H.grib2 2026-04-13 16:47 1.3M
20260413T12Z_MSC_GDPS_SpecificHumidity_IsbL-0100_LatLon0.15_PT123H.grib2 2026-04-13 16:47 1.3M
20260413T12Z_MSC_GDPS_SpecificHumidity_IsbL-0150_LatLon0.15_PT123H.grib2 2026-04-13 16:47 1.3M
20260413T12Z_MSC_GDPS_SpecificHumidity_IsbL-0175_LatLon0.15_PT123H.grib2 2026-04-13 16:47 1.3M
20260413T12Z_MSC_GDPS_SpecificHumidity_IsbL-0200_LatLon0.15_PT123H.grib2 2026-04-13 16:47 1.3M
20260413T12Z_MSC_GDPS_SpecificHumidity_IsbL-0225_LatLon0.15_PT123H.grib2 2026-04-13 16:47 1.3M
20260413T12Z_MSC_GDPS_SpecificHumidity_IsbL-0250_LatLon0.15_PT123H.grib2 2026-04-13 16:47 1.2M
20260413T12Z_MSC_GDPS_SpecificHumidity_IsbL-0275_LatLon0.15_PT123H.grib2 2026-04-13 16:47 1.3M
20260413T12Z_MSC_GDPS_SpecificHumidity_IsbL-0300_LatLon0.15_PT123H.grib2 2026-04-13 16:47 1.2M
20260413T12Z_MSC_GDPS_SpecificHumidity_IsbL-0350_LatLon0.15_PT123H.grib2 2026-04-13 16:47 1.2M
20260413T12Z_MSC_GDPS_SpecificHumidity_IsbL-0400_LatLon0.15_PT123H.grib2 2026-04-13 16:47 1.5M
20260413T12Z_MSC_GDPS_SpecificHumidity_IsbL-0450_LatLon0.15_PT123H.grib2 2026-04-13 16:47 1.3M
20260413T12Z_MSC_GDPS_SpecificHumidity_IsbL-0500_LatLon0.15_PT123H.grib2 2026-04-13 16:47 1.4M
20260413T12Z_MSC_GDPS_SpecificHumidity_IsbL-0550_LatLon0.15_PT123H.grib2 2026-04-13 16:47 1.6M
20260413T12Z_MSC_GDPS_SpecificHumidity_IsbL-0600_LatLon0.15_PT123H.grib2 2026-04-13 16:47 1.4M
20260413T12Z_MSC_GDPS_SpecificHumidity_IsbL-0650_LatLon0.15_PT123H.grib2 2026-04-13 16:47 1.5M
20260413T12Z_MSC_GDPS_SpecificHumidity_IsbL-0700_LatLon0.15_PT123H.grib2 2026-04-13 16:47 1.6M
20260413T12Z_MSC_GDPS_SpecificHumidity_IsbL-0750_LatLon0.15_PT123H.grib2 2026-04-13 16:47 1.7M
20260413T12Z_MSC_GDPS_SpecificHumidity_IsbL-0800_LatLon0.15_PT123H.grib2 2026-04-13 16:47 1.9M
20260413T12Z_MSC_GDPS_SpecificHumidity_IsbL-0850_LatLon0.15_PT123H.grib2 2026-04-13 16:47 1.9M
20260413T12Z_MSC_GDPS_SpecificHumidity_IsbL-0875_LatLon0.15_PT123H.grib2 2026-04-13 16:47 1.9M
20260413T12Z_MSC_GDPS_SpecificHumidity_IsbL-0900_LatLon0.15_PT123H.grib2 2026-04-13 16:47 1.6M
20260413T12Z_MSC_GDPS_SpecificHumidity_IsbL-0925_LatLon0.15_PT123H.grib2 2026-04-13 16:47 1.6M
20260413T12Z_MSC_GDPS_SpecificHumidity_IsbL-0950_LatLon0.15_PT123H.grib2 2026-04-13 16:47 1.6M
20260413T12Z_MSC_GDPS_SpecificHumidity_IsbL-0970_LatLon0.15_PT123H.grib2 2026-04-13 16:47 1.5M
20260413T12Z_MSC_GDPS_SpecificHumidity_IsbL-0985_LatLon0.15_PT123H.grib2 2026-04-13 16:47 1.5M
20260413T12Z_MSC_GDPS_SpecificHumidity_IsbL-1000_LatLon0.15_PT123H.grib2 2026-04-13 16:47 1.5M
20260413T12Z_MSC_GDPS_SpecificHumidity_IsbL-1015_LatLon0.15_PT123H.grib2 2026-04-13 16:47 1.4M
20260413T12Z_MSC_GDPS_SpecificHumidity_Sfc_LatLon0.15_PT123H.grib2 2026-04-13 16:47 667K
20260413T12Z_MSC_GDPS_Thickness_IsbL-0850to0700_LatLon0.15_PT123H.grib2 2026-04-13 16:47 471K
20260413T12Z_MSC_GDPS_Thickness_IsbL-1000to0500_LatLon0.15_PT123H.grib2 2026-04-13 16:47 380K
20260413T12Z_MSC_GDPS_Thickness_IsbL-1000to0850_LatLon0.15_PT123H.grib2 2026-04-13 16:47 495K
20260413T12Z_MSC_GDPS_TotalCloudCover_Sfc_LatLon0.15_PT123H.grib2 2026-04-13 16:47 815K
20260413T12Z_MSC_GDPS_TotalTotalsIndex_Sfc_LatLon0.15_PT123H.grib2 2026-04-13 16:47 6.2M
20260413T12Z_MSC_GDPS_UVIndex-ClearSky_Sfc_LatLon0.15_PT123H.grib2 2026-04-13 17:07 1.0M
20260413T12Z_MSC_GDPS_UVIndex_Sfc_LatLon0.15_PT123H.grib2 2026-04-13 17:07 1.5M
20260413T12Z_MSC_GDPS_UpwardLongwaveRadiationFlux_NTAtm_LatLon0.15_PT123H.grib2 2026-04-13 16:47 844K
20260413T12Z_MSC_GDPS_VerticalVelocity_IsbL-0200_LatLon0.15_PT123H.grib2 2026-04-13 16:47 1.1M
20260413T12Z_MSC_GDPS_VerticalVelocity_IsbL-0250_LatLon0.15_PT123H.grib2 2026-04-13 16:47 1.3M
20260413T12Z_MSC_GDPS_VerticalVelocity_IsbL-0500_LatLon0.15_PT123H.grib2 2026-04-13 16:47 1.3M
20260413T12Z_MSC_GDPS_VerticalVelocity_IsbL-0600_LatLon0.15_PT123H.grib2 2026-04-13 16:47 1.1M
20260413T12Z_MSC_GDPS_VerticalVelocity_IsbL-0700_LatLon0.15_PT123H.grib2 2026-04-13 16:47 1.1M
20260413T12Z_MSC_GDPS_VerticalVelocity_IsbL-0850_LatLon0.15_PT123H.grib2 2026-04-13 16:47 1.3M
20260413T12Z_MSC_GDPS_WindChill_Sfc_LatLon0.15_PT123H.grib2 2026-04-13 16:47 5.4M
20260413T12Z_MSC_GDPS_WindDir_AGL-10m_LatLon0.15_PT123H.grib2 2026-04-13 16:47 1.4M
20260413T12Z_MSC_GDPS_WindDir_AGL-120m_LatLon0.15_PT123H.grib2 2026-04-13 16:47 1.4M
20260413T12Z_MSC_GDPS_WindDir_AGL-40m_LatLon0.15_PT123H.grib2 2026-04-13 16:47 1.4M
20260413T12Z_MSC_GDPS_WindDir_AGL-80m_LatLon0.15_PT123H.grib2 2026-04-13 16:47 1.4M
20260413T12Z_MSC_GDPS_WindDir_IsbL-0001_LatLon0.15_PT123H.grib2 2026-04-13 16:47 637K
20260413T12Z_MSC_GDPS_WindDir_IsbL-0005_LatLon0.15_PT123H.grib2 2026-04-13 16:47 795K
20260413T12Z_MSC_GDPS_WindDir_IsbL-0010_LatLon0.15_PT123H.grib2 2026-04-13 16:47 838K
20260413T12Z_MSC_GDPS_WindDir_IsbL-0020_LatLon0.15_PT123H.grib2 2026-04-13 16:47 909K
20260413T12Z_MSC_GDPS_WindDir_IsbL-0030_LatLon0.15_PT123H.grib2 2026-04-13 16:47 866K
20260413T12Z_MSC_GDPS_WindDir_IsbL-0050_LatLon0.15_PT123H.grib2 2026-04-13 16:47 941K
20260413T12Z_MSC_GDPS_WindDir_IsbL-0100_LatLon0.15_PT123H.grib2 2026-04-13 16:47 1.0M
20260413T12Z_MSC_GDPS_WindDir_IsbL-0150_LatLon0.15_PT123H.grib2 2026-04-13 16:47 1.0M
20260413T12Z_MSC_GDPS_WindDir_IsbL-0175_LatLon0.15_PT123H.grib2 2026-04-13 16:47 1.0M
20260413T12Z_MSC_GDPS_WindDir_IsbL-0200_LatLon0.15_PT123H.grib2 2026-04-13 16:47 1.1M
20260413T12Z_MSC_GDPS_WindDir_IsbL-0225_LatLon0.15_PT123H.grib2 2026-04-13 16:47 1.1M
20260413T12Z_MSC_GDPS_WindDir_IsbL-0250_LatLon0.15_PT123H.grib2 2026-04-13 16:47 1.1M
20260413T12Z_MSC_GDPS_WindDir_IsbL-0275_LatLon0.15_PT123H.grib2 2026-04-13 16:47 1.2M
20260413T12Z_MSC_GDPS_WindDir_IsbL-0300_LatLon0.15_PT123H.grib2 2026-04-13 16:47 1.2M
20260413T12Z_MSC_GDPS_WindDir_IsbL-0350_LatLon0.15_PT123H.grib2 2026-04-13 16:47 1.2M
20260413T12Z_MSC_GDPS_WindDir_IsbL-0400_LatLon0.15_PT123H.grib2 2026-04-13 16:47 1.3M
20260413T12Z_MSC_GDPS_WindDir_IsbL-0450_LatLon0.15_PT123H.grib2 2026-04-13 16:47 1.3M
20260413T12Z_MSC_GDPS_WindDir_IsbL-0500_LatLon0.15_PT123H.grib2 2026-04-13 16:47 1.3M
20260413T12Z_MSC_GDPS_WindDir_IsbL-0550_LatLon0.15_PT123H.grib2 2026-04-13 16:47 1.4M
20260413T12Z_MSC_GDPS_WindDir_IsbL-0600_LatLon0.15_PT123H.grib2 2026-04-13 16:47 1.5M
20260413T12Z_MSC_GDPS_WindDir_IsbL-0650_LatLon0.15_PT123H.grib2 2026-04-13 16:47 1.5M
20260413T12Z_MSC_GDPS_WindDir_IsbL-0700_LatLon0.15_PT123H.grib2 2026-04-13 16:47 1.6M
20260413T12Z_MSC_GDPS_WindDir_IsbL-0750_LatLon0.15_PT123H.grib2 2026-04-13 16:47 1.7M
20260413T12Z_MSC_GDPS_WindDir_IsbL-0800_LatLon0.15_PT123H.grib2 2026-04-13 16:47 1.9M
20260413T12Z_MSC_GDPS_WindDir_IsbL-0850_LatLon0.15_PT123H.grib2 2026-04-13 16:47 2.0M
20260413T12Z_MSC_GDPS_WindDir_IsbL-0875_LatLon0.15_PT123H.grib2 2026-04-13 16:47 2.0M
20260413T12Z_MSC_GDPS_WindDir_IsbL-0900_LatLon0.15_PT123H.grib2 2026-04-13 16:47 2.0M
20260413T12Z_MSC_GDPS_WindDir_IsbL-0925_LatLon0.15_PT123H.grib2 2026-04-13 16:47 2.0M
20260413T12Z_MSC_GDPS_WindDir_IsbL-0950_LatLon0.15_PT123H.grib2 2026-04-13 16:47 2.0M
20260413T12Z_MSC_GDPS_WindDir_IsbL-0970_LatLon0.15_PT123H.grib2 2026-04-13 16:47 2.0M
20260413T12Z_MSC_GDPS_WindDir_IsbL-0985_LatLon0.15_PT123H.grib2 2026-04-13 16:47 2.1M
20260413T12Z_MSC_GDPS_WindDir_IsbL-1000_LatLon0.15_PT123H.grib2 2026-04-13 16:47 2.1M
20260413T12Z_MSC_GDPS_WindDir_IsbL-1015_LatLon0.15_PT123H.grib2 2026-04-13 16:47 2.1M
20260413T12Z_MSC_GDPS_WindGust-Max_AGL-10m_LatLon0.15_PT123H.grib2 2026-04-13 16:47 2.2M
20260413T12Z_MSC_GDPS_WindGust-Min_AGL-10m_LatLon0.15_PT123H.grib2 2026-04-13 16:47 2.2M
20260413T12Z_MSC_GDPS_WindGust_AGL-10m_LatLon0.15_PT123H.grib2 2026-04-13 16:47 2.2M
20260413T12Z_MSC_GDPS_WindSpeed_AGL-10m_LatLon0.15_PT123H.grib2 2026-04-13 16:47 1.1M
20260413T12Z_MSC_GDPS_WindSpeed_AGL-120m_LatLon0.15_PT123H.grib2 2026-04-13 16:47 1.2M
20260413T12Z_MSC_GDPS_WindSpeed_AGL-40m_LatLon0.15_PT123H.grib2 2026-04-13 16:47 1.2M
20260413T12Z_MSC_GDPS_WindSpeed_AGL-80m_LatLon0.15_PT123H.grib2 2026-04-13 16:47 1.2M
20260413T12Z_MSC_GDPS_WindSpeed_IsbL-0001_LatLon0.15_PT123H.grib2 2026-04-13 16:47 630K
20260413T12Z_MSC_GDPS_WindSpeed_IsbL-0005_LatLon0.15_PT123H.grib2 2026-04-13 16:47 681K
20260413T12Z_MSC_GDPS_WindSpeed_IsbL-0010_LatLon0.15_PT123H.grib2 2026-04-13 16:47 618K
20260413T12Z_MSC_GDPS_WindSpeed_IsbL-0020_LatLon0.15_PT123H.grib2 2026-04-13 16:47 852K
20260413T12Z_MSC_GDPS_WindSpeed_IsbL-0030_LatLon0.15_PT123H.grib2 2026-04-13 16:47 849K
20260413T12Z_MSC_GDPS_WindSpeed_IsbL-0050_LatLon0.15_PT123H.grib2 2026-04-13 16:47 1.0M
20260413T12Z_MSC_GDPS_WindSpeed_IsbL-0100_LatLon0.15_PT123H.grib2 2026-04-13 16:47 1.1M
20260413T12Z_MSC_GDPS_WindSpeed_IsbL-0150_LatLon0.15_PT123H.grib2 2026-04-13 16:47 1.0M
20260413T12Z_MSC_GDPS_WindSpeed_IsbL-0175_LatLon0.15_PT123H.grib2 2026-04-13 16:47 1.0M
20260413T12Z_MSC_GDPS_WindSpeed_IsbL-0200_LatLon0.15_PT123H.grib2 2026-04-13 16:47 1.1M
20260413T12Z_MSC_GDPS_WindSpeed_IsbL-0225_LatLon0.15_PT123H.grib2 2026-04-13 16:47 1.1M
20260413T12Z_MSC_GDPS_WindSpeed_IsbL-0250_LatLon0.15_PT123H.grib2 2026-04-13 16:47 1.1M
20260413T12Z_MSC_GDPS_WindSpeed_IsbL-0275_LatLon0.15_PT123H.grib2 2026-04-13 16:47 1.1M
20260413T12Z_MSC_GDPS_WindSpeed_IsbL-0300_LatLon0.15_PT123H.grib2 2026-04-13 16:47 1.1M
20260413T12Z_MSC_GDPS_WindSpeed_IsbL-0350_LatLon0.15_PT123H.grib2 2026-04-13 16:47 1.1M
20260413T12Z_MSC_GDPS_WindSpeed_IsbL-0400_LatLon0.15_PT123H.grib2 2026-04-13 16:47 1.1M
20260413T12Z_MSC_GDPS_WindSpeed_IsbL-0450_LatLon0.15_PT123H.grib2 2026-04-13 16:47 1.1M
20260413T12Z_MSC_GDPS_WindSpeed_IsbL-0500_LatLon0.15_PT123H.grib2 2026-04-13 16:47 1.1M
20260413T12Z_MSC_GDPS_WindSpeed_IsbL-0550_LatLon0.15_PT123H.grib2 2026-04-13 16:47 1.1M
20260413T12Z_MSC_GDPS_WindSpeed_IsbL-0600_LatLon0.15_PT123H.grib2 2026-04-13 16:47 1.4M
20260413T12Z_MSC_GDPS_WindSpeed_IsbL-0650_LatLon0.15_PT123H.grib2 2026-04-13 16:47 1.4M
20260413T12Z_MSC_GDPS_WindSpeed_IsbL-0700_LatLon0.15_PT123H.grib2 2026-04-13 16:47 1.5M
20260413T12Z_MSC_GDPS_WindSpeed_IsbL-0750_LatLon0.15_PT123H.grib2 2026-04-13 16:47 1.6M
20260413T12Z_MSC_GDPS_WindSpeed_IsbL-0800_LatLon0.15_PT123H.grib2 2026-04-13 16:47 1.6M
20260413T12Z_MSC_GDPS_WindSpeed_IsbL-0850_LatLon0.15_PT123H.grib2 2026-04-13 16:47 1.7M
20260413T12Z_MSC_GDPS_WindSpeed_IsbL-0875_LatLon0.15_PT123H.grib2 2026-04-13 16:47 1.8M
20260413T12Z_MSC_GDPS_WindSpeed_IsbL-0900_LatLon0.15_PT123H.grib2 2026-04-13 16:47 1.8M
20260413T12Z_MSC_GDPS_WindSpeed_IsbL-0925_LatLon0.15_PT123H.grib2 2026-04-13 16:47 1.8M
20260413T12Z_MSC_GDPS_WindSpeed_IsbL-0950_LatLon0.15_PT123H.grib2 2026-04-13 16:47 1.8M
20260413T12Z_MSC_GDPS_WindSpeed_IsbL-0970_LatLon0.15_PT123H.grib2 2026-04-13 16:47 1.9M
20260413T12Z_MSC_GDPS_WindSpeed_IsbL-0985_LatLon0.15_PT123H.grib2 2026-04-13 16:47 1.9M
20260413T12Z_MSC_GDPS_WindSpeed_IsbL-1000_LatLon0.15_PT123H.grib2 2026-04-13 16:47 1.9M
20260413T12Z_MSC_GDPS_WindSpeed_IsbL-1015_LatLon0.15_PT123H.grib2 2026-04-13 16:47 1.8M
20260413T12Z_MSC_GDPS_WindU_AGL-10m_LatLon0.15_PT123H.grib2 2026-04-13 16:47 1.3M
20260413T12Z_MSC_GDPS_WindU_AGL-120m_LatLon0.15_PT123H.grib2 2026-04-13 16:47 1.0M
20260413T12Z_MSC_GDPS_WindU_AGL-40m_LatLon0.15_PT123H.grib2 2026-04-13 16:47 970K
20260413T12Z_MSC_GDPS_WindU_AGL-80m_LatLon0.15_PT123H.grib2 2026-04-13 16:47 1.0M
20260413T12Z_MSC_GDPS_WindU_IsbL-0001_LatLon0.15_PT123H.grib2 2026-04-13 16:47 638K
20260413T12Z_MSC_GDPS_WindU_IsbL-0005_LatLon0.15_PT123H.grib2 2026-04-13 16:47 683K
20260413T12Z_MSC_GDPS_WindU_IsbL-0010_LatLon0.15_PT123H.grib2 2026-04-13 16:47 694K
20260413T12Z_MSC_GDPS_WindU_IsbL-0020_LatLon0.15_PT123H.grib2 2026-04-13 16:47 730K
20260413T12Z_MSC_GDPS_WindU_IsbL-0030_LatLon0.15_PT123H.grib2 2026-04-13 16:47 729K
20260413T12Z_MSC_GDPS_WindU_IsbL-0050_LatLon0.15_PT123H.grib2 2026-04-13 16:47 699K
20260413T12Z_MSC_GDPS_WindU_IsbL-0100_LatLon0.15_PT123H.grib2 2026-04-13 16:47 927K
20260413T12Z_MSC_GDPS_WindU_IsbL-0150_LatLon0.15_PT123H.grib2 2026-04-13 16:47 1.0M
20260413T12Z_MSC_GDPS_WindU_IsbL-0175_LatLon0.15_PT123H.grib2 2026-04-13 16:47 1.0M
20260413T12Z_MSC_GDPS_WindU_IsbL-0200_LatLon0.15_PT123H.grib2 2026-04-13 16:47 845K
20260413T12Z_MSC_GDPS_WindU_IsbL-0225_LatLon0.15_PT123H.grib2 2026-04-13 16:47 855K
20260413T12Z_MSC_GDPS_WindU_IsbL-0250_LatLon0.15_PT123H.grib2 2026-04-13 16:47 857K
20260413T12Z_MSC_GDPS_WindU_IsbL-0275_LatLon0.15_PT123H.grib2 2026-04-13 16:47 883K
20260413T12Z_MSC_GDPS_WindU_IsbL-0300_LatLon0.15_PT123H.grib2 2026-04-13 16:47 874K
20260413T12Z_MSC_GDPS_WindU_IsbL-0350_LatLon0.15_PT123H.grib2 2026-04-13 16:47 1.1M
20260413T12Z_MSC_GDPS_WindU_IsbL-0400_LatLon0.15_PT123H.grib2 2026-04-13 16:47 1.1M
20260413T12Z_MSC_GDPS_WindU_IsbL-0450_LatLon0.15_PT123H.grib2 2026-04-13 16:47 1.1M
20260413T12Z_MSC_GDPS_WindU_IsbL-0500_LatLon0.15_PT123H.grib2 2026-04-13 16:47 1.1M
20260413T12Z_MSC_GDPS_WindU_IsbL-0550_LatLon0.15_PT123H.grib2 2026-04-13 16:47 1.1M
20260413T12Z_MSC_GDPS_WindU_IsbL-0600_LatLon0.15_PT123H.grib2 2026-04-13 16:47 1.1M
20260413T12Z_MSC_GDPS_WindU_IsbL-0650_LatLon0.15_PT123H.grib2 2026-04-13 16:47 1.1M
20260413T12Z_MSC_GDPS_WindU_IsbL-0700_LatLon0.15_PT123H.grib2 2026-04-13 16:47 1.2M
20260413T12Z_MSC_GDPS_WindU_IsbL-0750_LatLon0.15_PT123H.grib2 2026-04-13 16:47 1.2M
20260413T12Z_MSC_GDPS_WindU_IsbL-0800_LatLon0.15_PT123H.grib2 2026-04-13 16:47 1.3M
20260413T12Z_MSC_GDPS_WindU_IsbL-0850_LatLon0.15_PT123H.grib2 2026-04-13 16:47 1.4M
20260413T12Z_MSC_GDPS_WindU_IsbL-0875_LatLon0.15_PT123H.grib2 2026-04-13 16:47 1.4M
20260413T12Z_MSC_GDPS_WindU_IsbL-0900_LatLon0.15_PT123H.grib2 2026-04-13 16:47 1.5M
20260413T12Z_MSC_GDPS_WindU_IsbL-0925_LatLon0.15_PT123H.grib2 2026-04-13 16:47 1.5M
20260413T12Z_MSC_GDPS_WindU_IsbL-0950_LatLon0.15_PT123H.grib2 2026-04-13 16:47 1.4M
20260413T12Z_MSC_GDPS_WindU_IsbL-0970_LatLon0.15_PT123H.grib2 2026-04-13 16:47 1.4M
20260413T12Z_MSC_GDPS_WindU_IsbL-0985_LatLon0.15_PT123H.grib2 2026-04-13 16:47 1.4M
20260413T12Z_MSC_GDPS_WindU_IsbL-1000_LatLon0.15_PT123H.grib2 2026-04-13 16:47 1.4M
20260413T12Z_MSC_GDPS_WindU_IsbL-1015_LatLon0.15_PT123H.grib2 2026-04-13 16:47 1.3M
20260413T12Z_MSC_GDPS_WindV_AGL-10m_LatLon0.15_PT123H.grib2 2026-04-13 16:47 1.6M
20260413T12Z_MSC_GDPS_WindV_AGL-120m_LatLon0.15_PT123H.grib2 2026-04-13 16:47 1.0M
20260413T12Z_MSC_GDPS_WindV_AGL-40m_LatLon0.15_PT123H.grib2 2026-04-13 16:47 1.0M
20260413T12Z_MSC_GDPS_WindV_AGL-80m_LatLon0.15_PT123H.grib2 2026-04-13 16:47 1.0M
20260413T12Z_MSC_GDPS_WindV_IsbL-0001_LatLon0.15_PT123H.grib2 2026-04-13 16:47 759K
20260413T12Z_MSC_GDPS_WindV_IsbL-0005_LatLon0.15_PT123H.grib2 2026-04-13 16:47 770K
20260413T12Z_MSC_GDPS_WindV_IsbL-0010_LatLon0.15_PT123H.grib2 2026-04-13 16:47 794K
20260413T12Z_MSC_GDPS_WindV_IsbL-0020_LatLon0.15_PT123H.grib2 2026-04-13 16:47 846K
20260413T12Z_MSC_GDPS_WindV_IsbL-0030_LatLon0.15_PT123H.grib2 2026-04-13 16:47 845K
20260413T12Z_MSC_GDPS_WindV_IsbL-0050_LatLon0.15_PT123H.grib2 2026-04-13 16:47 896K
20260413T12Z_MSC_GDPS_WindV_IsbL-0100_LatLon0.15_PT123H.grib2 2026-04-13 16:47 852K
20260413T12Z_MSC_GDPS_WindV_IsbL-0150_LatLon0.15_PT123H.grib2 2026-04-13 16:47 1.0M
20260413T12Z_MSC_GDPS_WindV_IsbL-0175_LatLon0.15_PT123H.grib2 2026-04-13 16:47 1.0M
20260413T12Z_MSC_GDPS_WindV_IsbL-0200_LatLon0.15_PT123H.grib2 2026-04-13 16:47 842K
20260413T12Z_MSC_GDPS_WindV_IsbL-0225_LatLon0.15_PT123H.grib2 2026-04-13 16:47 911K
20260413T12Z_MSC_GDPS_WindV_IsbL-0250_LatLon0.15_PT123H.grib2 2026-04-13 16:47 913K
20260413T12Z_MSC_GDPS_WindV_IsbL-0275_LatLon0.15_PT123H.grib2 2026-04-13 16:47 938K
20260413T12Z_MSC_GDPS_WindV_IsbL-0300_LatLon0.15_PT123H.grib2 2026-04-13 16:47 928K
20260413T12Z_MSC_GDPS_WindV_IsbL-0350_LatLon0.15_PT123H.grib2 2026-04-13 16:47 939K
20260413T12Z_MSC_GDPS_WindV_IsbL-0400_LatLon0.15_PT123H.grib2 2026-04-13 16:47 878K
20260413T12Z_MSC_GDPS_WindV_IsbL-0450_LatLon0.15_PT123H.grib2 2026-04-13 16:47 877K
20260413T12Z_MSC_GDPS_WindV_IsbL-0500_LatLon0.15_PT123H.grib2 2026-04-13 16:47 1.1M
20260413T12Z_MSC_GDPS_WindV_IsbL-0550_LatLon0.15_PT123H.grib2 2026-04-13 16:47 1.1M
20260413T12Z_MSC_GDPS_WindV_IsbL-0600_LatLon0.15_PT123H.grib2 2026-04-13 16:47 1.1M
20260413T12Z_MSC_GDPS_WindV_IsbL-0650_LatLon0.15_PT123H.grib2 2026-04-13 16:47 1.2M
20260413T12Z_MSC_GDPS_WindV_IsbL-0700_LatLon0.15_PT123H.grib2 2026-04-13 16:47 1.2M
20260413T12Z_MSC_GDPS_WindV_IsbL-0750_LatLon0.15_PT123H.grib2 2026-04-13 16:47 1.3M
20260413T12Z_MSC_GDPS_WindV_IsbL-0800_LatLon0.15_PT123H.grib2 2026-04-13 16:47 1.3M
20260413T12Z_MSC_GDPS_WindV_IsbL-0850_LatLon0.15_PT123H.grib2 2026-04-13 16:47 1.4M
20260413T12Z_MSC_GDPS_WindV_IsbL-0875_LatLon0.15_PT123H.grib2 2026-04-13 16:47 1.4M
20260413T12Z_MSC_GDPS_WindV_IsbL-0900_LatLon0.15_PT123H.grib2 2026-04-13 16:47 1.5M
20260413T12Z_MSC_GDPS_WindV_IsbL-0925_LatLon0.15_PT123H.grib2 2026-04-13 16:47 1.5M
20260413T12Z_MSC_GDPS_WindV_IsbL-0950_LatLon0.15_PT123H.grib2 2026-04-13 16:47 1.4M
20260413T12Z_MSC_GDPS_WindV_IsbL-0970_LatLon0.15_PT123H.grib2 2026-04-13 16:47 1.4M
20260413T12Z_MSC_GDPS_WindV_IsbL-0985_LatLon0.15_PT123H.grib2 2026-04-13 16:47 1.4M
20260413T12Z_MSC_GDPS_WindV_IsbL-1000_LatLon0.15_PT123H.grib2 2026-04-13 16:47 1.4M
20260413T12Z_MSC_GDPS_WindV_IsbL-1015_LatLon0.15_PT123H.grib2 2026-04-13 16:47 1.4M